Weather History for Covington, KY

Change the Weather History Date:

Thursday, March 21, 2013

  Actual Average Record
Temperature  
Mean Temperature 27 °F 45 °F  
Max Temperature 34 °F 55 °F 83 °F (2012)
Min Temperature 19 °F 36 °F 12 °F (1885)
Degree Days  
Heating Degree Days 38 20  
Month to date heating degree days 598 488  
Since 1 July heating degree days 4308 4315  
Cooling Degree Days 0 0  
Month to date cooling degree days 0 0  
Year to date cooling degree days 0 0  
Moisture  
Dew Point 10 °F    
Average Humidity 57    
Maximum Humidity 74    
Minimum Humidity 39    
Precipitation  
Precipitation T in 0.14 in 1.31 in (1962)
Month to date precipitation 3.30 2.55  
Year to date precipitation 8.90 8.36  
Snow  
Snow T in 0.10 in 4.20 in (2006)
Month to date snowfall 5.5 2.4  
Since 1 July snowfall 21.9 21.0  
Snow Depth 0.00 in    
Sea Level Pressure  
Sea Level Pressure 30.01 in    
Wind  
Wind Speed 7 mph (NW)    
Max Wind Speed 18 mph    
Max Gust Speed 24 mph    
Visibility 10 miles    
Events Snow    
T = Trace of Precipitation, MM = Missing Value Source: NWS Daily Summary

Daily Weather History Graph

Daily Weather History Graph

Search for Another Location

Airport:

Trip Planner

Search our weather history database for the weather conditions in past years. The results will help you decide how hot, cold, wet, or windy it might be!

Date:

Astronomy

Mar. 21, 2013 Rise Set
Actual Time 7:40 AM EDT 7:51 PM EDT
Civil Twilight 7:13 AM EDT 8:18 PM EDT
Nautical Twilight 6:42 AM EDT 8:49 PM EDT
Astronomical Twilight 6:10 AM EDT 9:21 PM EDT
Moon 2:23 PM EDT (3/21) 3:59 AM EDT (3/21)
Length of Visible Light 13h 05m
Length of Day
12h 11m
Waxing Gibbous, 68% of the Moon is Illuminated
Mar 21
Waxing Gibbous
Mar 27
Full
Apr 3
Last Quarter
Apr 10
New
Apr 18
First Quarter

Hourly Weather History & Observations

Time (EDT) Temp. Windchill Dew Point Humidity Pressure Visibility Wind Dir Wind Speed Gust Speed Precip Events Conditions
12:52 AM 23.0 °F 17.0 °F 10.9 °F 60% 30.01 in 10.0 mi WSW 4.6 mph - N/A   Mostly Cloudy
1:52 AM 24.1 °F 13.7 °F 12.9 °F 62% 30.01 in 10.0 mi NW 10.4 mph - N/A   Overcast
2:52 AM 23.0 °F 15.8 °F 16.0 °F 74% 30.00 in 10.0 mi WNW 5.8 mph - 0.00 in   Overcast
3:52 AM 23.0 °F 8.7 °F 12.0 °F 63% 29.99 in 7.0 mi NW 18.4 mph 23.0 mph N/A   Overcast
4:52 AM 21.9 °F 11.0 °F 9.0 °F 58% 29.97 in 10.0 mi WNW 10.4 mph - N/A   Partly Cloudy
5:52 AM 21.0 °F 13.4 °F 10.0 °F 63% 29.96 in 10.0 mi NW 5.8 mph - N/A   Overcast
6:52 AM 19.9 °F 10.1 °F 10.9 °F 68% 29.97 in 10.0 mi West 8.1 mph - N/A   Scattered Clouds
7:52 AM 21.0 °F 8.1 °F 10.9 °F 65% 29.99 in 9.0 mi WNW 13.8 mph - 0.00 in Snow Light Snow
8:52 AM 21.0 °F 9.9 °F 12.9 °F 71% 30.00 in 10.0 mi NW 10.4 mph - 0.00 in   Mostly Cloudy
9:52 AM 21.9 °F 10.4 °F 10.9 °F 63% 30.02 in 10.0 mi NNW 11.5 mph 21.9 mph N/A   Overcast
10:52 AM 25.0 °F 14.8 °F 9.0 °F 51% 30.03 in 9.0 mi NNW 10.4 mph 17.3 mph 0.00 in   Mostly Cloudy
11:52 AM 25.0 °F 14.8 °F 5.0 °F 43% 30.04 in 10.0 mi NW 10.4 mph - N/A   Mostly Cloudy
12:52 PM 28.4 °F 20.4 °F 6.8 °F 40% 30.01 in 10.0 mi NW 8.1 mph - N/A   Scattered Clouds
1:52 PM 28.9 °F 22.8 °F 7.0 °F 40% 30.03 in 10.0 mi NNW 5.8 mph - N/A   Mostly Cloudy
2:52 PM 30.9 °F 25.2 °F 8.1 °F 38% 30.02 in 10.0 mi Variable 5.8 mph - N/A   Mostly Cloudy
3:52 PM 30.0 °F 26.5 °F 8.1 °F 40% 30.02 in 10.0 mi NW 3.5 mph 16.1 mph N/A   Mostly Cloudy
4:52 PM 32.0 °F 24.2 °F 10.0 °F 40% 30.01 in 10.0 mi West 9.2 mph - N/A   Mostly Cloudy
5:52 PM 32.0 °F 24.8 °F 10.0 °F 40% 30.01 in 10.0 mi North 8.1 mph - N/A   Mostly Cloudy
6:52 PM 30.0 °F - 9.0 °F 41% 30.02 in 10.0 mi Calm Calm - N/A   Scattered Clouds
7:52 PM 30.0 °F 24.1 °F 10.9 °F 45% 30.03 in 10.0 mi NNW 5.8 mph - N/A   Scattered Clouds
8:52 PM 28.9 °F 22.8 °F 12.0 °F 49% 30.04 in 10.0 mi NW 5.8 mph - N/A   Mostly Cloudy
9:52 PM 27.0 °F 23.0 °F 12.0 °F 53% 30.05 in 10.0 mi West 3.5 mph - N/A   Partly Cloudy
10:52 PM 24.1 °F - 10.9 °F 57% 30.06 in 10.0 mi Calm Calm - N/A   Partly Cloudy
11:52 PM 23.0 °F 17.0 °F 12.0 °F 63% 30.05 in 10.0 mi SW 4.6 mph - N/A   Clear